Location: *
(31.2983°S, 151.4094°E)
Time: 19:02:13
(UTC+00:00)

RESURS DK-1 - Pass Details

Date: 25 August 2019
Orbit: 557 x 561 km, 69.9° (Epoch: 13 October)

Event Time Altitude Azimuth Distance (km) Brightness Sun altitude
Rises 19:03:15 0° 348° (NNW) 2,730 5.8 -16.8°
Reaches altitude 10° 19:05:27 10° 351° (N) 1,842 4.9 -16.3°
Maximum altitude 19:09:30 60° 71° (ENE) 645 2.9 -15.5°
Drops below altitude 10° 19:13:37 10° 151° (SSE) 1,868 5.3 -14.6°
Sets 19:15:52 0° 154° (SSE) 2,771 6.2 -14.1°
